DECAYED

CZ-6A DEB, 60851 (Decayed)

Orbit data source: Space-Track

CZ-6A DEB, 60851 was space debris in LEO originally from a launch on Tue, 06 Aug 2024 UTC launched from the Taiyaun Space Center, China (TSC). Debris objects in space refer to the collection of defunct objects orbiting the Earth. Examples of debris include non-operational satellites, rocket bodies, and fragments generated from explosions, collisions, or faulty payload assembly.

Not visible in the next 10 days
Identifier
60851, 2024-140JE
Orbit
Decayed
Country
Flag of CNCN / PRC
Related business
Manufacturer
SAST
Mission
Decayed spacecraft
Bus & Motor
Unknown
Mass
Unknown
Launch date (UTC)
2024-08-06 (2 years ago)
Launch vehicle
Unknown
Launch site
Taiyaun Space Center, China (TSC)
Object type
Payload
Rocket body
Debris
Shape & HBR
Unknown shape, 0.2 m
Radar Cross Section
Medium (>0.1 m² and <1 m²)

Expand to show TLE details & history
Last TLE update: 6 months ago

TLE from 6 months ago
0 CZ-6A DEB
1 60851U 24140JE  25352.61162154  .04576275  27174-1  13294-1 0  9992
2 60851  88.9710 288.7623 0019640 108.9282 251.4135 15.96178679 72549
Epoch: 2025-12-18T14:40Z
TLE epoch observation values (Epoch: 2025-12-18T14:40:44.101Z)
Latitude
-0.00007°
Longitude
-18.88609°
Altitude
292.528 km
Speed
7.73 km/s
True Right ascension
19h 15m 02s
True Declination
0° 00' 00"
Sunlit
Object was in daylight at epoch
Visualization orbit readout
Latitude
Unknown
Longitude
Unknown
Altitude
Unknown
Speed
Unknown
Apparent Right ascension
Unknown
Apparent Declination
Unknown
Sunlit
N/A
Visualization observer readout
Local Sidereal Time
10:18:51
Azimuth
Unknown
Elevation
Unknown
Doppler factor
Unknown
Orbital elements
Apogee altitude
294.816 km
Perigee altitude
268.656 km
Semi-major axis
6,659.873 km
Eccentricity
0.00196
Inclination
88.971°
RAAN
288.7623°
Arg. of periapsis
108.9282°
True anomaly
251.20035°
Mean anomaly
251.4135°
Eccentric anomaly
251.30691°
Mean motion
3.99341 °/min
Orbital period
90.15 mins
BSTAR
0.013294
Loading maneuver chart data...
Computing Atmospheric mass density...
Loading historical data...
Loading historical data...
Loading historical data...
Loading historical data...
Loading historical data...
Loading historical data...
Loading historical data...

Documentation

Showing up to 5 results
|